Flag for Barbados Weather past 2 weeks in Bridgetown, Barbados

Now
81 °F

Scattered showers. Broken clouds.


Feels Like: 85 °F
Forecast: 82 / 87 °F
Wind: 14 mph from East

Location: Grantley Adams

Current Time: Oct 1, 2014 at 6:35:25 AM

Latest Report: Oct 1, 2014 at 6:00 AM


Visibility: N/A

Pressure: 29.95 "Hg

Humidity: 79%

Dew point: 73 °F

Location of BridgetownLocation

Historic Weather in Bridgetown — Graph

°F

Bridgetown temperature yesterday

Maximum temperature yesterday: 88 °F (at 12:00 PM)
Minimum temperature yesterday: 81 °F (at 12:00 AM)
Average temperature yesterday: 83 °F

Past Weeks' High & Low Weather Summary

 TemperatureHumidityPressure
High88 °F (Sep 16, 10:00 AM)100% (Sep 19, 10:00 AM)30.01 "Hg (Sep 19, 10:00 AM)
Low73 °F (Sep 19, 10:00 AM)66% (Sep 16, 11:00 AM)29.83 "Hg (Sep 25, 3:00 PM)
Average82 °F84%29.92 "Hg
* Reported Sep 16 5:00 AM — Oct 1 5:00 AM, Bridgetown, Weather by CustomWeather, © 2014

Note: Actual official high and low records may vary slightly from our data, if they occured in-between our weather recording intervals... More about our weather records

Advertising

Bridgetown weather history for previous 24 hours

 ConditionsComfort  
Time TempWeatherWind HumidityBarometerVisibility
5:00 AM
Oct 1
81 °FPartly cloudy.13 mph79%29.95 "HgN/A
4:00 AM81 °FPartly cloudy.15 mph84%29.92 "HgN/A
3:00 AM81 °FPartly cloudy.15 mph79%29.95 "HgN/A
2:00 AM81 °FPartly cloudy.13 mph84%29.95 "HgN/A
1:00 AM81 °FPartly cloudy.14 mph84%29.95 "HgN/A
12:00 AM82 °FPartly cloudy.15 mph79%29.98 "HgN/A
11:00 PM
Sep 30
81 °FPartly cloudy.14 mph89%29.98 "HgN/A
10:00 PM81 °FPartly cloudy.14 mph79%30.01 "HgN/A
9:00 PM82 °FPartly cloudy.14 mph79%29.98 "HgN/A
8:00 PM81 °FPartly cloudy.14 mph84%29.98 "HgN/A
7:00 PM81 °FPartly cloudy.10 mph84%29.95 "HgN/A
6:00 PM82 °FPassing clouds.13 mph84%29.95 "HgN/A
5:00 PM82 °FBroken clouds.14 mph79%29.95 "HgN/A
4:00 PM82 °FScattered showers. Broken clouds.12 mph84%29.92 "HgN/A
3:00 PM86 °FScattered clouds.12 mph75%29.92 "HgN/A
2:00 PM86 °FBroken clouds.14 mph75%29.92 "HgN/A
1:00 PM88 °FScattered clouds.16 mph70%29.98 "HgN/A
12:00 PM88 °FScattered clouds.15 mph75%29.98 "HgN/A
11:00 AM86 °FScattered clouds.15 mph75%29.98 "HgN/A
10:00 AM86 °FScattered clouds.16 mph75%30.01 "HgN/A
9:00 AM86 °FPartly sunny.16 mph75%30.01 "HgN/A
8:00 AM84 °FScattered clouds.15 mph79%29.98 "HgN/A
7:00 AM82 °FScattered clouds.14 mph84%29.95 "HgN/A
6:00 AM81 °FPartly sunny.13 mph84%29.95 "HgN/A
Weather by CustomWeather, © 2014

See weather overviewHow to use our weather pages